Weather History for KLGA - March, 2001

Change the Weather History Date:

Monday, March 26, 2001

  Actual Average Record
Temperature  
Mean Temperature 32 °F 45 °F  
Max Temperature 37 °F 53 °F 72 °F (1943)
Min Temperature 28 °F 38 °F 20 °F (1960)
Degree Days  
Heating Degree Days 32 20  
Month to date heating degree days 613  
Since 1 July heating degree days 4042  
Cooling Degree Days 0 0  
Month to date cooling degree days 0  
Year to date cooling degree days 0  
Moisture  
Dew Point 24 °F    
Average Humidity 76    
Maximum Humidity 100    
Minimum Humidity 37    
Precipitation  
Precipitation 0.07 in 0.14 in 1.26 in (1973)
Month to date precipitation 3.29  
Year to date precipitation 9.22  
Snow  
Snow 0.00 in 0.00 in 2.40 in (2001)
Month to date snowfall 4.0  
Since 1 July snowfall 26.0  
Snow Depth -    
Sea Level Pressure  
Sea Level Pressure 30.01 in    
Wind  
Wind Speed 9 mph (NE)    
Max Wind Speed 24 mph    
Max Gust Speed 34 mph    
Visibility 5 miles    
Events Fog , Snow    
T = Trace of Precipitation, MM = Missing Value Source: NWS Daily Summary

Daily Weather History Graph

Daily Weather History Graph

Search for Another Location

Airport or City:

Trip Planner

Search our weather history database for the weather conditions in past years. The results will help you decide how hot, cold, wet, or windy it might be!

Date:

Astronomy

Mar. 26, 2001 Rise Set
Actual Time 5:48 AM EST 6:14 PM EST
Civil Twilight 5:21 AM EST 6:41 PM EST
Nautical Twilight 4:49 AM EST 7:13 PM EST
Astronomical Twilight 4:16 AM EST 7:47 PM EST
Moon 6:56 AM EST (3/26) 7:57 PM EST (3/26)
Length of Visible Light 13h 20m
Length of Day
12h 25m
Waxing Crescent, 3% of the Moon is Illuminated
Mar 26
Waxing Crescent
Apr 1
First Quarter
Apr 7
Full
Apr 15
Last Quarter
Apr 23
New

Hourly Weather History & Observations

Time (EST) Temp. Windchill Dew Point Humidity Pressure Visibility Wind Dir Wind Speed Gust Speed Precip Events Conditions
12:51 AM 36.0 °F 29.0 °F 14.0 °F 41% 30.01 in 10.0 mi NNE 9.2 mph - 0.00 in Snow Light Snow
1:25 AM 33.8 °F 30.8 °F 19.4 °F 56% 30.01 in 4.0 mi Variable 3.5 mph - 0.00 in Snow Light Snow
1:51 AM 34.0 °F 28.8 °F 21.0 °F 59% 30.01 in 10.0 mi ESE 5.8 mph - 0.00 in   Overcast
2:51 AM 35.1 °F 28.6 °F 19.0 °F 52% 29.99 in 10.0 mi ESE 8.1 mph - N/A   Overcast
3:51 AM 35.1 °F 27.9 °F 19.0 °F 52% 29.99 in 10.0 mi ENE 9.2 mph - N/A   Overcast
4:51 AM 33.1 °F 26.9 °F 23.0 °F 66% 30.00 in 10.0 mi East 6.9 mph - N/A   Overcast
5:51 AM 32.0 °F 25.6 °F 25.0 °F 75% 30.00 in 10.0 mi East 6.9 mph - 0.00 in Snow Light Snow
6:19 AM 30.2 °F 21.9 °F 26.6 °F 86% 30.00 in 5.0 mi ENE 9.2 mph - 0.00 in Snow Light Snow
6:51 AM 32.0 °F 24.8 °F 27.0 °F 82% 30.00 in 4.0 mi East 8.1 mph - 0.00 in Snow Light Snow
6:59 AM 32.0 °F 25.6 °F 26.6 °F 80% 30.00 in 2.0 mi ESE 6.9 mph - 0.00 in Snow Light Snow
7:14 AM 30.2 °F 24.3 °F 28.4 °F 93% 30.01 in 0.8 mi ENE 5.8 mph - 0.00 in Snow Light Snow
7:37 AM 30.2 °F 21.9 °F 28.4 °F 93% 30.01 in 0.5 mi East 9.2 mph - 0.00 in Fog , Snow Snow
7:51 AM 30.0 °F 22.4 °F 28.0 °F 92% 30.01 in 0.5 mi East 8.1 mph - 0.00 in Fog , Snow Heavy Snow
8:00 AM 32.0 °F 23.6 °F 32.0 °F 100% 30.01 in 0.2 mi East 10.4 mph - 0.01 in Fog , Snow Heavy Snow
8:34 AM 30.2 °F 23.4 °F 30.2 °F 100% 30.02 in 0.2 mi ESE 6.9 mph - 0.02 in Fog , Snow Snow
8:44 AM 28.4 °F 19.7 °F 28.4 °F 100% 30.02 in 0.2 mi SE 9.2 mph - 0.03 in Fog , Snow Snow
8:51 AM 30.0 °F 21.7 °F 30.0 °F 100% 30.01 in 0.5 mi ESE 9.2 mph - 0.03 in Fog , Snow Snow
9:15 AM 30.2 °F 22.6 °F 28.4 °F 93% 30.01 in 2.0 mi East 8.1 mph - 0.00 in Snow Light Snow
9:42 AM 30.2 °F 24.3 °F 30.2 °F 100% 30.01 in 1.5 mi NE 5.8 mph - 0.00 in Snow Light Snow
9:51 AM 30.9 °F 26.2 °F 30.0 °F 96% 30.01 in 1.5 mi NE 4.6 mph - 0.00 in Snow Light Snow
10:51 AM 30.9 °F 23.5 °F 30.9 °F 100% 30.00 in 1.0 mi SE 8.1 mph - 0.00 in Snow Light Snow
10:53 AM 30.2 °F 22.6 °F 30.2 °F 100% 30.00 in 0.8 mi SSE 8.1 mph - 0.00 in Snow Light Snow
11:51 AM 32.0 °F 26.4 °F 30.9 °F 96% 29.98 in 0.8 mi SSE 5.8 mph - 0.03 in Snow Light Snow
12:10 PM 33.8 °F 28.6 °F 32.0 °F 93% 29.98 in 1.5 mi Variable 5.8 mph - 0.00 in Snow Light Snow
12:33 PM 32.0 °F 21.6 °F 32.0 °F 100% 29.98 in 0.2 mi West 15.0 mph 19.6 mph 0.01 in Fog , Snow Heavy Snow
12:51 PM 32.0 °F 22.1 °F 30.9 °F 96% 29.99 in 0.5 mi NW 13.8 mph - 0.01 in Fog , Snow Light Snow
1:08 PM 32.0 °F 22.1 °F 30.2 °F 93% 29.98 in 1.5 mi NW 13.8 mph - 0.00 in Snow Light Snow
1:51 PM 32.0 °F 23.6 °F 30.0 °F 92% 29.98 in 1.5 mi NNW 10.4 mph - 0.00 in Snow Light Snow
1:53 PM 32.0 °F 23.6 °F 30.2 °F 93% 29.98 in 1.5 mi NW 10.4 mph - 0.00 in Snow Light Snow
2:05 PM 33.8 °F 26.4 °F 30.2 °F 87% 29.98 in 1.5 mi North 9.2 mph - 0.00 in Snow Light Snow
2:10 PM 33.8 °F 25.8 °F 30.2 °F 87% 29.97 in 8.0 mi NNW 10.4 mph - 0.00 in Snow Light Snow
2:51 PM 35.1 °F 25.2 °F 23.0 °F 61% 29.96 in 10.0 mi NNW 16.1 mph - 0.00 in   Mostly Cloudy
3:51 PM 37.0 °F 27.7 °F 12.9 °F 37% 29.96 in 10.0 mi WNW 16.1 mph - N/A   Scattered Clouds
4:51 PM 36.0 °F 26.7 °F 12.0 °F 37% 29.97 in 10.0 mi NW 15.0 mph - N/A   Partly Cloudy
5:51 PM 34.0 °F 25.5 °F 17.1 °F 50% 30.00 in 10.0 mi NNW 11.5 mph 31.1 mph N/A   Scattered Clouds
6:51 PM 33.1 °F 21.2 °F 19.0 °F 56% 30.03 in 10.0 mi NW 20.7 mph 28.8 mph N/A   Partly Cloudy
7:51 PM 32.0 °F 18.9 °F 17.1 °F 54% 30.07 in 10.0 mi NW 24.2 mph 34.5 mph N/A   Partly Cloudy
8:51 PM 30.9 °F 18.7 °F 14.0 °F 50% 30.09 in 10.0 mi NNW 19.6 mph - N/A   Clear
9:51 PM 30.0 °F 17.5 °F 10.9 °F 45% 30.11 in 10.0 mi NNW 19.6 mph 26.5 mph N/A   Clear
10:51 PM 28.9 °F 15.4 °F 9.0 °F 43% 30.12 in 10.0 mi NW 21.9 mph 29.9 mph N/A   Clear
11:51 PM 28.0 °F 15.3 °F 8.1 °F 43% 30.14 in 10.0 mi NW 18.4 mph - N/A   Clear